#timestamp,LO_Frequency,Hit 
1505134815.7,286047003.1,N
1505134835.5,286047003.6,N
1505134855.3,286047001.4,N
1505134875.2,286047005.4,N
1505134895.9,286047001.4,N
1505134915.7,286047002.2,N
1505134935.6,286047001.8,N
1505134955.4,286047003.1,N
1505134975.2,286047003.8,N
1505134995.1,286047004.4,N
1505134996.0,286047004.4,N
1505135015.8,286047007.3,P
1505135035.6,286046998.5,N
1505135055.5,286047001.0,N
1505135075.3,286046998.1,N
1505135095.1,286046995.9,N
1505135115.9,286046995.9,N
1505135135.7,286046996.4,N
1505135155.5,286046995.7,N
1505135175.4,286046994.9,N
1505135195.2,286047001.0,N
1505135215.0,286047000.3,N
1505135215.9,286047000.3,N
1505135235.8,286047000.3,N
1505135255.6,286046996.8,N
1505135275.4,286046993.4,N
1505135295.2,286046997.1,N
1505135315.1,286046997.9,N
1505135316.0,286046997.9,N
1505135335.8,286046997.5,N
1505135355.6,286046996.0,N
1505135375.5,286046995.4,N
1505135395.3,286046995.7,N
1505135415.1,286046991.8,N
1505135435.9,286046993.0,N
1505135455.7,286046994.1,N
1505135475.5,286046994.7,N
1505135495.4,286046994.8,N
1505135515.2,286046990.5,N
1505135535.0,286046991.8,N
1505135535.9,286046991.8,N
1505135555.8,286046996.3,N
1505135575.6,286046996.4,N
1505135595.4,286046995.3,N
1505135615.3,286046997.5,N
1505135635.1,286047001.2,N
1505135636.0,286047001.2,N
1505135655.8,286046998.6,N
1505135675.7,286047002.8,N
1505135695.5,286047001.5,N
1505135715.3,286047003.5,N
1505135735.2,286046998.4,N
1505135755.9,286046993.7,N
1505135775.7,286046994.4,N
1505135795.5,286046995.2,N
1505135815.4,286046998.6,N
1505135835.2,286046998.6,N
1505135855.0,286046998.2,N
1505135855.9,286046998.2,N
1505135875.8,286047002.8,N
1505135895.6,286047000.1,N
1505135915.4,286046997.1,N
1505135935.3,286046993.3,N
1505135955.1,286046995.9,N
1505135975.8,286046997.7,N
1505135995.7,286046995.9,N
1505136015.5,286046993.5,N
1505136035.3,286046996.4,N
1505136055.2,286046995.5,N
1505136075.9,286046997.5,N
1505136095.7,286046997.2,N
1505136115.6,286046999.2,N
1505136135.4,286046998.7,N
1505136155.2,286046998.3,N
1505136175.0,286046999.7,N
1505136176.0,286046999.7,N
1505136195.8,286046995.2,N
1505136215.6,286046995.0,N
1505136235.4,286046998.8,N
1505136255.3,286046999.1,N
1505136275.1,286046999.5,N
1505136295.8,286046997.1,N
1505136315.7,286046995.4,N
1505136335.5,286046997.6,N
1505136355.3,286046995.9,N
1505136375.2,286046994.1,N
1505136395.9,286046996.3,N
1505136415.7,286046993.8,N
1505136435.6,286046996.4,N
1505136455.4,286046992.1,P
1505136475.2,286046997.5,N
1505136495.1,286046995.7,N
1505136496.0,286046995.7,N
1505136515.8,286046996.7,N
1505136535.6,286046996.9,N
1505136555.5,286046995.3,N
1505136575.3,286046997.0,N
1505136595.1,286047000.2,N
1505136615.9,286047000.3,N
1505136635.7,286047002.3,N
1505136655.5,286047002.6,N
1505136675.3,286047002.0,N
1505136695.2,286047000.9,N
1505136715.9,286046999.7,N
1505136735.7,286047000.3,N
1505136755.6,286046998.4,N
1505136775.4,286047000.1,N
1505136795.2,286047002.4,N
1505136815.1,286047002.6,N
1505136816.0,286047002.6,N
1505136835.8,286047005.8,N
1505136855.6,286047003.3,N
1505136875.5,286047003.5,N
1505136895.3,286047001.4,N
1505136915.1,286046999.1,N
1505136935.8,286046997.5,N
1505136955.7,286046997.7,N
1505136975.5,286046999.1,N
1505136995.3,286047002.7,N
1505137015.2,286046997.3,N
1505137035.0,286047001.0,N
1505137035.9,286047001.0,N
1505137055.7,286047002.2,N
1505137075.6,286047002.3,N
1505137095.4,286047004.2,N
1505137115.2,286047002.7,N
1505137135.1,286046999.0,N
1505137136.0,286046999.0,N
1505137155.8,286046999.6,N
1505137175.6,286046997.2,N
1505137195.5,286046995.7,N
1505137215.3,286046994.1,N
1505137235.1,286046993.9,N
1505137255.9,286046995.3,N
1505137275.7,286047000.8,N
1505137295.5,286047002.7,N
1505137315.4,286047003.4,N
1505137335.2,286047001.9,N
1505137355.0,286047000.0,N
1505137355.9,286047000.0,N
1505137375.8,286047000.6,N
1505137395.6,286047000.0,N
1505137415.4,286046999.7,N
1505137435.2,286047005.2,N
1505137455.1,286047003.3,N
1505137456.0,286047003.3,N
1505137475.8,286047000.8,N
1505137495.6,286047000.6,N
1505137515.5,286047001.1,N
1505137535.3,286046998.0,N
1505137555.1,286046999.2,N
1505137575.9,286047001.2,N
1505137595.7,286046999.1,N
1505137615.5,286046996.5,N
1505137635.4,286046998.8,N
1505137655.2,286046999.1,N
1505137675.0,286047002.0,N
1505137675.9,286047002.0,N
1505137695.8,286046998.2,N
1505137715.6,286047000.4,N
1505137735.4,286047004.3,N
1505137755.3,286047002.7,N
1505137775.1,286047007.1,N
1505137776.0,286047007.1,N
1505137795.8,286047004.7,N
1505137815.7,286047003.6,N
1505137835.5,286047004.9,N
1505137855.3,286047006.1,N
1505137875.2,286047008.5,P
1505137895.9,286047001.3,N
1505137915.7,286047000.3,N
1505137935.5,286047001.1,N
1505137955.4,286047004.8,N
1505137975.2,286047003.7,N
1505137995.0,286046999.9,N
1505137995.9,286046999.9,N
1505138015.8,286047004.3,N
1505138035.6,286047003.6,N
1505138055.4,286047001.7,N
1505138075.3,286046999.7,N
1505138095.1,286047003.3,N
1505138096.0,286047003.3,N
1505138115.8,286047003.6,N
1505138135.7,286047001.9,N
1505138155.5,286047002.8,N
1505138175.3,286047006.0,N
1505138195.2,286047003.0,N
1505138215.9,286047005.2,N
1505138235.7,286047005.2,N
1505138255.6,286047006.2,N
1505138275.4,286047003.8,N
1505138295.2,286047005.3,N
1505138315.0,286047004.1,N
1505138315.9,286047004.1,N
1505138335.8,286047002.8,N
1505138355.6,286047002.3,N
1505138375.4,286047002.0,N
1505138395.3,286047003.7,N
